This is the latest recevied weather packets stored in our database for station/object KF4WSW-13. If no packets are shown the sender has not sent any weather packets the latest 10 day(s).
| Time | Temp. | Humidity | Pressure | Rain* | Wind** | Luminosity | Snow |
|---|---|---|---|---|---|---|---|
| 1778007993 | 27.78° C | 64% | 1013.4 hPa | 0 mm | - | 739 W/m² | - |
| 1778007687 | 28.33° C | 63% | 1013.4 hPa | 0 mm | - | 744 W/m² | - |
| 1778007385 | 28.33° C | 62% | 1013.4 hPa | 0 mm | - | 699 W/m² | - |
| 1778007081 | 28.89° C | 62% | 1013.4 hPa | 0 mm | - | 650 W/m² | - |
| 1778006777 | 28.33° C | 61% | 1013.4 hPa | 0 mm | - | 681 W/m² | - |
| 1778006474 | 28.33° C | 61% | 1013.5 hPa | 0 mm | - | 654 W/m² | - |
| 1778006171 | 28.33° C | 63% | 1013.6 hPa | 0 mm | - | 761 W/m² | - |
| 1778005869 | 27.22° C | 64% | 1013.6 hPa | 0 mm | - | 759 W/m² | - |
| 1778005564 | 27.78° C | 64% | 1013.7 hPa | 0 mm | - | 710 W/m² | - |
| 1778005262 | 28.33° C | 61% | 1013.7 hPa | 0 mm | - | 208 W/m² | - |
| 1778004958 | 28.89° C | 61% | 1013.9 hPa | 0 mm | - | 206 W/m² | - |
| 1778004655 | 29.44° C | 59% | 1013.4 hPa | 0 mm | - | 245 W/m² | - |
| 1778004351 | 28.89° C | 60% | 1013.5 hPa | 0 mm | - | 743 W/m² | - |
| 1778004049 | 28.33° C | 61% | 1013.6 hPa | 0 mm | - | 262 W/m² | - |
| 1778003750 | 28.89° C | 61% | 1013.7 hPa | 0 mm | - | 362 W/m² | - |
| 1778003446 | 27.22° C | 63% | 1013.8 hPa | 0 mm | - | 881 W/m² | - |
| 1778003144 | 27.78° C | 61% | 1013.8 hPa | 0 mm | - | 181 W/m² | - |
| 1778002840 | 28.89° C | 60% | 1013.9 hPa | 0 mm | - | 476 W/m² | - |
| 1778002537 | 27.78° C | 62% | 1014 hPa | 0 mm | - | 882 W/m² | - |
| 1778002233 | 27.78° C | 61% | 1014.1 hPa | 0 mm | - | 269 W/m² | - |
| 1778001931 | 27.78° C | 62% | 1013.9 hPa | 0 mm | - | 191 W/m² | - |
| 1778001627 | 27.78° C | 61% | 1013.9 hPa | 0 mm | - | 377 W/m² | - |
| 1778001322 | 27.78° C | 60% | 1014.1 hPa | 0 mm | - | 177 W/m² | - |
| 1778001020 | 28.33° C | 60% | 1014.1 hPa | 0 mm | - | 249 W/m² | - |
| 1778000717 | 28.33° C | 60% | 1014.2 hPa | 0 mm | - | 226 W/m² | - |
* Rain latest hour (hover to see other rain measurements)
** Current wind speed in m/s (hover to see current wind gust speed)